This is the latest recevied weather packets stored in our database for station/object SQ9NFI-4. If no packets are shown the sender has not sent any weather packets the latest 10 day(s).
| Time | Temp. | Humidity | Pressure | Rain* | Wind** | Luminosity | Snow |
|---|---|---|---|---|---|---|---|
| 1777892504 | 26.67° C | 28% | 1015.2 hPa | 0 mm | - | 694 W/m² | - |
| 1777892204 | 25.56° C | 26% | 1015.2 hPa | 0 mm | - | 657 W/m² | - |
| 1777891904 | 25.56° C | 26% | 1015.2 hPa | 0 mm | - | 631 W/m² | - |
| 1777891604 | 25.56° C | 27% | 1015.2 hPa | 0 mm | - | 640 W/m² | - |
| 1777891304 | 25.56° C | 27% | 1015.2 hPa | 0 mm | - | 685 W/m² | - |
| 1777891004 | 25.56° C | 28% | 1015.9 hPa | 0 mm | - | 663 W/m² | - |
| 1777890704 | 25.56° C | 27% | 1015.9 hPa | 0 mm | - | 640 W/m² | - |
| 1777890404 | 25.56° C | 26% | 1015.9 hPa | 0 mm | - | 677 W/m² | - |
| 1777890104 | 26.11° C | 26% | 1015.9 hPa | 0 mm | - | 685 W/m² | - |
| 1777889804 | 25.56° C | 27% | 1015.9 hPa | 0 mm | - | 697 W/m² | - |
| 1777889504 | 25.56° C | 28% | 1016.3 hPa | 0 mm | - | 694 W/m² | - |
| 1777889204 | 25.56° C | 26% | 1016.3 hPa | 0 mm | - | 708 W/m² | - |
| 1777888904 | 25° C | 25% | 1016.3 hPa | 0 mm | - | 697 W/m² | - |
| 1777888604 | 25° C | 26% | 1016.3 hPa | 0 mm | - | 702 W/m² | - |
| 1777888304 | 25.56° C | 28% | 1016.3 hPa | 0 mm | - | 694 W/m² | - |
| 1777888004 | 25.56° C | 27% | 1016.3 hPa | 0 mm | - | 694 W/m² | - |
| 1777887704 | 24.44° C | 28% | 1016.3 hPa | 0 mm | - | 683 W/m² | - |
| 1777887404 | 24.44° C | 27% | 1016.6 hPa | 0 mm | - | 677 W/m² | - |
| 1777887104 | 25.56° C | 29% | 1016.6 hPa | 0 mm | - | 674 W/m² | - |
| 1777886804 | 24.44° C | 28% | 1016.9 hPa | 0 mm | - | 657 W/m² | - |
| 1777886504 | 24.44° C | 27% | 1016.9 hPa | 0 mm | - | 654 W/m² | - |
| 1777886204 | 24.44° C | 27% | 1016.9 hPa | 0 mm | - | 620 W/m² | - |
| 1777885904 | 24.44° C | 27% | 1016.6 hPa | 0 mm | - | 631 W/m² | - |
| 1777885604 | 24.44° C | 28% | 1016.6 hPa | 0 mm | - | 643 W/m² | - |
| 1777885304 | 24.44° C | 28% | 1016.9 hPa | 0 mm | - | 634 W/m² | - |
* Rain latest hour (hover to see other rain measurements)
** Current wind speed in m/s (hover to see current wind gust speed)